{"data":{"norad_id":55307,"epoch":"2026-05-25T02:22:01.960320Z","epoch_age_seconds":66394,"freshness":"FRESH","line1":"1 55307U 23010AQ  26145.09863380  .00000496  00000+0  49367-4 0  9992","line2":"2 55307  69.9984 171.9608 0003869 265.1363  94.9354 14.98332055185212","mean_motion":14.98332055,"eccentricity":0.0003869,"inclination_deg":69.9984,"raan_deg":171.9608,"arg_perigee_deg":265.1363,"mean_anomaly_deg":94.9354,"bstar":4.9367e-5,"rev_number":18521,"period_min":96.106867312533,"perigee_km":569.36050886291,"apogee_km":574.73856320449,"semimajor_km":6950.1865360337,"source":"CELESTRAK","updated_at":"2026-05-25T13:38:17.756485Z"}}